• In Latvia
  • List of Countries
  • For 7 days
  • Water Temperature
  • Satellite Maps
  • Weather Map
  • Weather Widgets
  • user-avatar
    Login

    Hourly Weather Aizkraukle

    Today, 13 December, Wednesday

    Time Temperature Precipitation Wind Pressure Humidity
    00:00 +2°C° 0 mm 7 mps 743 mmHg 82%
    01:00 0°C° 0 mm 7 mps 744 mmHg 80%
    02:00 0°C° 0 mm 8 mps 744 mmHg 78%
    03:00 0°C° 0.3 mm 7 mps 745 mmHg 80%
    04:00 0°C° 0.3 mm 7 mps 745 mmHg 81%
    05:00 0°C° 0.3 mm 7 mps 746 mmHg 83%
    06:00 -1°C° 0.4 mm 6 mps 747 mmHg 83%
    07:00 -1°C° 0.4 mm 6 mps 748 mmHg 84%
    08:00 0°C° 0.4 mm 5 mps 749 mmHg 85%
    09:00 -1°C° 0.1 mm 5 mps 750 mmHg 84%
    10:00 -1°C° 0.1 mm 4 mps 751 mmHg 82%
    11:00 -1°C° 0.1 mm 4 mps 752 mmHg 81%
    12:00 -1°C° 0 mm 4 mps 752 mmHg 82%
    13:00 -1°C° 0 mm 4 mps 752 mmHg 83%
    14:00 -1°C° 0 mm 4 mps 752 mmHg 85%
    15:00 -1°C° 0.1 mm 4 mps 753 mmHg 86%
    16:00 -1°C° 0.1 mm 4 mps 753 mmHg 87%
    17:00 -1°C° 0.1 mm 4 mps 753 mmHg 89%
    18:00 -1°C° 0 mm 4 mps 753 mmHg 90%
    19:00 -2°C° 0 mm 4 mps 753 mmHg 90%
    20:00 -2°C° 0 mm 4 mps 753 mmHg 91%
    21:00 -3°C° 0 mm 4 mps 753 mmHg 92%
    22:00 -3°C° 0 mm 4 mps 753 mmHg 92%
    23:00 -3°C° 0 mm 4 mps 753 mmHg 92%

    Tomorrow, 14 December, Thursday

    Time Temperature Precipitation Wind Pressure Humidity
    00:00 -3°C° 0 mm 4 mps 752 mmHg 91%
    01:00 -4°C° 0 mm 4 mps 752 mmHg 90%
    02:00 -4°C° 0 mm 4 mps 751 mmHg 89%
    03:00 -4°C° 0 mm 4 mps 751 mmHg 86%
    04:00 -4°C° 0 mm 5 mps 750 mmHg 84%
    05:00 -4°C° 0 mm 5 mps 749 mmHg 82%
    06:00 -4°C° 0 mm 5 mps 749 mmHg 81%
    07:00 -4°C° 0 mm 5 mps 748 mmHg 80%
    08:00 -4°C° 0 mm 5 mps 747 mmHg 78%
    09:00 -4°C° 0 mm 6 mps 747 mmHg 78%
    10:00 -3°C° 0 mm 6 mps 746 mmHg 77%
    11:00 -3°C° 0 mm 6 mps 745 mmHg 77%
    12:00 -3°C° 0 mm 6 mps 744 mmHg 77%
    13:00 -2°C° 0 mm 6 mps 744 mmHg 77%
    14:00 -2°C° 0 mm 6 mps 743 mmHg 78%
    15:00 -2°C° 0.2 mm 6 mps 742 mmHg 79%
    16:00 -2°C° 0.2 mm 6 mps 742 mmHg 81%
    17:00 -2°C° 0.2 mm 6 mps 741 mmHg 83%
    18:00 -2°C° 0.6 mm 6 mps 740 mmHg 84%
    19:00 -1°C° 0.6 mm 5 mps 740 mmHg 86%
    20:00 -1°C° 0.6 mm 5 mps 739 mmHg 88%
    21:00 -1°C° 0.5 mm 5 mps 739 mmHg 89%
    22:00 -1°C° 0.5 mm 4 mps 738 mmHg 90%
    23:00 -1°C° 0.5 mm 4 mps 738 mmHg 92%

    Day after tomorrow, 15 December, Friday

    Time Temperature Precipitation Wind Pressure Humidity
    00:00 -1°C° 0.5 mm 4 mps 738 mmHg 92%
    01:00 -1°C° 0.5 mm 4 mps 738 mmHg 93%
    02:00 -1°C° 0.5 mm 4 mps 738 mmHg 93%
    03:00 -1°C° 0.1 mm 4 mps 738 mmHg 92%
    04:00 -1°C° 0.1 mm 4 mps 739 mmHg 92%
    05:00 -1°C° 0.1 mm 5 mps 739 mmHg 91%
    06:00 -1°C° 0.2 mm 5 mps 740 mmHg 90%
    07:00 -1°C° 0.2 mm 5 mps 741 mmHg 88%
    08:00 -1°C° 0.2 mm 5 mps 742 mmHg 86%
    09:00 -1°C° 0 mm 5 mps 742 mmHg 87%
    10:00 -2°C° 0 mm 5 mps 742 mmHg 87%
    11:00 -2°C° 0 mm 4 mps 743 mmHg 87%
    12:00 -2°C° 0 mm 4 mps 743 mmHg 86%
    13:00 -2°C° 0 mm 4 mps 743 mmHg 85%
    14:00 -2°C° 0 mm 4 mps 743 mmHg 83%
    15:00 -2°C° 0 mm 4 mps 743 mmHg 84%
    16:00 -2°C° 0 mm 4 mps 743 mmHg 84%
    17:00 -2°C° 0 mm 4 mps 742 mmHg 85%
    18:00 -2°C° 0.1 mm 4 mps 742 mmHg 87%
    19:00 0°C° 0.1 mm 3 mps 742 mmHg 89%
    20:00 0°C° 0.1 mm 3 mps 741 mmHg 91%
    21:00 0°C° 0.5 mm 3 mps 741 mmHg 92%
    22:00 +1°C° 0.5 mm 2 mps 740 mmHg 94%
    23:00 +1°C° 0.5 mm 2 mps 739 mmHg 95%

    16 December, Saturday

    Time Temperature Precipitation Wind Pressure Humidity
    00:00 +1°C° 0.5 mm 2 mps 739 mmHg 96%
    01:00 +2°C° 0.5 mm 1 mps 739 mmHg 96%
    02:00 +2°C° 0.5 mm 1 mps 739 mmHg 97%
    03:00 +1°C° 0.4 mm 2 mps 740 mmHg 95%
    04:00 0°C° 0.4 mm 3 mps 740 mmHg 94%
    05:00 -2°C° 0.4 mm 4 mps 741 mmHg 93%
    06:00 -1°C° 0 mm 3 mps 742 mmHg 93%
    07:00 -2°C° 0 mm 3 mps 742 mmHg 94%
    08:00 -2°C° 0 mm 3 mps 743 mmHg 94%
    09:00 -1°C° 0 mm 3 mps 744 mmHg 93%
    10:00 -2°C° 0 mm 4 mps 745 mmHg 93%
    11:00 -1°C° 0 mm 4 mps 745 mmHg 92%
    12:00 -1°C° 0 mm 4 mps 746 mmHg 92%
    13:00 -1°C° 0 mm 4 mps 746 mmHg 91%
    14:00 -2°C° 0 mm 4 mps 747 mmHg 90%
    15:00 -2°C° 0 mm 4 mps 747 mmHg 90%
    16:00 -1°C° 0 mm 3 mps 747 mmHg 91%
    17:00 -1°C° 0 mm 3 mps 748 mmHg 91%
    18:00 -1°C° 0.1 mm 3 mps 748 mmHg 91%
    19:00 -1°C° 0.1 mm 3 mps 749 mmHg 92%
    20:00 -1°C° 0.1 mm 3 mps 749 mmHg 92%
    21:00 -1°C° 0.1 mm 3 mps 750 mmHg 92%
    22:00 -1°C° 0.1 mm 3 mps 750 mmHg 92%
    23:00 -1°C° 0.1 mm 3 mps 751 mmHg 93%

    17 December, Sunday

    Time Temperature Precipitation Wind Pressure Humidity
    00:00 -1°C° 0 mm 3 mps 751 mmHg 93%
    01:00 -2°C° 0 mm 3 mps 751 mmHg 94%
    02:00 -2°C° 0 mm 2 mps 752 mmHg 94%
    03:00 -2°C° 0 mm 2 mps 752 mmHg 94%
    04:00 -2°C° 0 mm 2 mps 753 mmHg 95%
    05:00 -3°C° 0 mm 2 mps 753 mmHg 95%
    06:00 -2°C° 0 mm 2 mps 753 mmHg 95%
    07:00 -2°C° 0 mm 2 mps 754 mmHg 95%
    08:00 -2°C° 0 mm 2 mps 755 mmHg 95%
    09:00 -2°C° 0 mm 2 mps 755 mmHg 94%
    10:00 -2°C° 0 mm 2 mps 756 mmHg 94%
    11:00 -1°C° 0 mm 2 mps 757 mmHg 94%
    12:00 -1°C° 0 mm 2 mps 757 mmHg 94%
    13:00 -1°C° 0 mm 2 mps 757 mmHg 94%
    14:00 +1°C° 0 mm 1 mps 758 mmHg 94%
    15:00 +1°C° 0 mm 1 mps 758 mmHg 94%
    16:00 0°C° 0 mm 1 mps 759 mmHg 95%
    17:00 0°C° 0 mm 1 mps 759 mmHg 95%
    18:00 0°C° 0 mm 1 mps 760 mmHg 95%
    19:00 0°C° 0 mm 1 mps 760 mmHg 94%
    20:00 0°C° 0 mm 1 mps 761 mmHg 94%
    21:00 0°C° 0 mm 1 mps 761 mmHg 94%
    22:00 0°C° 0 mm 1 mps 761 mmHg 94%
    23:00 0°C° 0 mm 1 mps 762 mmHg 94%

    18 December, Monday

    Time Temperature Precipitation Wind Pressure Humidity
    00:00 0°C° 0 mm 1 mps 762 mmHg 94%
    01:00 0°C° 0 mm 1 mps 762 mmHg 94%
    02:00 -1°C° 0 mm 1 mps 762 mmHg 94%
    03:00 -1°C° 0 mm 1 mps 762 mmHg 94%
    04:00 -1°C° 0 mm 1 mps 762 mmHg 94%
    05:00 -1°C° 0 mm 1 mps 763 mmHg 94%
    06:00 -1°C° 0 mm 1 mps 763 mmHg 94%
    07:00 -1°C° 0 mm 1 mps 763 mmHg 94%
    08:00 -1°C° 0 mm 1 mps 763 mmHg 94%
    09:00 -1°C° 0 mm 1 mps 763 mmHg 93%
    10:00 -1°C° 0 mm 1 mps 763 mmHg 93%
    11:00 -1°C° 0 mm 1 mps 764 mmHg 92%
    12:00 -1°C° 0 mm 1 mps 763 mmHg 92%
    13:00 -1°C° 0 mm 1 mps 763 mmHg 92%
    14:00 -1°C° 0 mm 1 mps 763 mmHg 91%
    15:00 -2°C° 0 mm 1 mps 763 mmHg 92%
    16:00 -3°C° 0 mm 1 mps 763 mmHg 93%
    17:00 -3°C° 0 mm 1 mps 763 mmHg 94%
    18:00 -3°C° 0 mm 1 mps 763 mmHg 94%
    19:00 -5°C° 0 mm 2 mps 763 mmHg 94%
    20:00 -6°C° 0 mm 2 mps 763 mmHg 94%
    21:00 -6°C° 0 mm 2 mps 763 mmHg 94%
    22:00 -5°C° 0 mm 2 mps 764 mmHg 94%
    23:00 -5°C° 0 mm 2 mps 764 mmHg 94%
    Show more